Location: Aurora Center
(43.5271°N, 98.5894°W)
Time: 00:36:52
(UTC-05:00)

BlueWalker 3 - Pass Details

Date: 22 June 2024
Orbit: 480 x 492 km, 53.2° (Epoch: 15 July)

Event Time Altitude Azimuth Distance (km) Brightness Sun altitude
Rises 01:02:46 0° 298° (WNW) 2,539 6.0 -22.6°
Reaches altitude 10° 01:05:27 10° 318° (NW) 1,658 5.3 -22.7°
Maximum altitude 01:08:07 18° 3° (N) 1,227 4.8 -22.7°
Drops below altitude 10° 01:10:48 10° 49° (NE) 1,657 5.0 -22.8°
Sets 01:13:28 0° 69° (ENE) 2,536 5.7 -22.8°
